Regional Weather Roundup
Issued by NWS

Home | Current Version | Previous Version | Graphics & Text | Print | Product List | Glossary On
Versions: 1 2 3 4 5 6 7 8 9 10 11 12 13 14 15 16 17 18 19 20 21 22 23 24 25 26 27 28 29 30 31 32 33 34 35 36 37 38 39 40 41 42 43 44 45 46 47 48 49 50
000
ASUS45 KCYS 012210
RWRWY

WYOMING REGIONAL WEATHER ROUNDUP
NATIONAL WEATHER SERVICE CHEYENNE WY
300 PM MST THU DEC 01 2016

NOTE:  "FAIR" INDICATES FEW OR NO CLOUDS BELOW 12,000 FEET
WITH NO SIGNIFICANT WEATHER AND/OR OBSTRUCTIONS TO VISIBILITY.

WYZ001-012300-
YELLOWSTONE NATIONAL PARK

CITY           SKY/WX    TMP DP  RH WIND       PRES   REMARKS
LK YELLOWSTONE   N/A     20  12  71 NW6       29.92R WCI  12
W YELLOWSTONE  NOT AVBL

$$
WYZ002>013-054>058-071-098>099-012300-
NORTHERN WYOMING

CITY           SKY/WX    TMP DP  RH WIND       PRES   REMARKS
JACKSON        FAIR      27  18  69 W7        29.93S WCI  19
CODY           FAIR      34  16  47 S6        29.92R WCI  29
GREYBULL       FAIR      38  15  39 S3        29.93R
WORLAND        FAIR      38  19  46 CALM      29.92R
SHERIDAN       PTSUNNY   39  21  48 W5        29.91R
BUFFALO        CLOUDY    39  17  41 N5        29.91R
GILLETTE       CLOUDY    35  24  64 NW12      29.91R WCI  27
HULETT         CLOUDY    32  23  69 SW3       29.92R
NEWCASTLE      FAIR      30  21  69 N6        29.93S WCI  24

$$
WYZ014>020-022>026-101>103-012300-
CENTRAL WYOMING

CITY           SKY/WX    TMP DP  RH WIND       PRES   REMARKS
BIG PINEY      PTSUNNY   26  15  63 VRB5      29.92S WCI  20
PINEDALE       MOCLDY    27  19  74 N10G17    29.92S WCI  17
DUBOIS         FAIR      28   9  43 NW12G20   29.86R WCI  18
LANDER         FAIR      29  16  58 CALM      29.90S
RIVERTON       FAIR      29  15  56 NE3       29.91S
CASPER         CLOUDY    33  19  56 SW12      29.91R WCI  24
DOUGLAS        CLOUDY    36  17  46 NW14      29.91R WCI  27

$$
WYZ021-027>030-104>119-012300-
SOUTHERN WYOMING

CITY           SKY/WX    TMP DP  RH WIND       PRES   REMARKS
EVANSTON       FAIR      24  12  60 W14       29.95F WCI  12
KEMMERER         N/A     27  14  59 W14       29.94F WCI  15
FORT BRIDGER   FAIR      30  16  55 W15G21    29.97F WCI  19
ROCK SPRINGS   PTSUNNY   26  17  68 W14       29.93S WCI  14
DIXON          LGT SNOW  27  22  80 S6        29.99R VSB 1   WCI  20
RAWLINS        FLURRIES  26  17  68 SW15G22   29.92R WCI  14
SARATOGA       CLOUDY    27  18  69 W8G17     29.93R WCI  18
LARAMIE        CLOUDY    26  15  63 N14       29.87R WCI  14
CHEYENNE       CLOUDY    34  14  43 N8        29.89R WCI  27
TORRINGTON     FAIR      41   8  25 NW7       29.91R
PINE BLUFFS    CLOUDY    36  14  41 W16G23    29.91R WCI  26

$$



USA.gov is the U.S. government's official web portal to all federal, state and local government web resources and services.